Neste Rally Finland   26.-29.7.2018

Back to Menu

Print page

Refresh

Neste Rally Finland - All

2018-08-01 17:15:02   
Final Results
POS#1-DRIVER2-DRIVERNATCARPENTIMEDIFF PREV.DIFF 1.
1.8Ott TÄNAKMartin JÄRVEOJAEST/ESTToyota2:35:18.1
2.10Mads ÖSTBERGTorstein ERIKSENNOR/NORCitroen2:35:50.8+32.7+32.7
3.7Jari-Matti LATVALAMiikka ANTTILAFIN/FINToyota2:35:53.6+2.8+35.5
4.6Hayden PADDONSebastian MARSHALLNZL/GBRHyundai2:36:53.7+1:00.1+1:35.6
5.1Sébastien OGIERJulien INGRASSIAFRA/FRAFord2:37:33.1+39.4+2:15.0
6.3Teemu SUNINENMikko MARKKULAFIN/FINFord0:202:37:37.3+4.2+2:19.2
7.2Elfyn EVANSDaniel BARRITTGBR/GBRFord2:37:47.6+10.3+2:29.5
8.11Craig BREENScott MARTINIRL/GBRCitroen2:38:26.5+38.9+3:08.4
9.5Thierry NEUVILLENicolas GILSOULBEL/BELHyundai2:39:09.9+43.4+3:51.8
10.4Andreas MIKKELSENANDERS JAEGERNOR/NORHyundai0:402:43:55.5+4:45.6+8:37.4
11.45Eerik PIETARINEN Juhana RAITANEN FIN/FINSkoda2:45:18.4+1:22.9+10:00.3
12.38Jari HUTTUNENAntti LINNAKETOFIN/FINHyundai2:46:25.2+1:06.8+11:07.1
13.32Gus GREENSMITHCraig PARRYGBR/GBRFord2:47:53.3+1:28.1+12:35.2
14.41Kalle ROVANPERÄJonne HALTTUNENFIN/FINSkoda2:47:55.2+1.9+12:37.1
15.35PIERRE-LOUIS LOUBETVincent LANDAISFRA/FRAHyundai0:502:49:23.4+1:28.2+14:05.3
16.82Marko MÄNTY Joni MÄKELÄFIN/FINSkoda2:50:25.6+1:02.2+15:07.5
17.87Ville PYNNÖNEN Timo HANTUNEN FIN/FINSkoda2:54:19.7+3:54.1+19:01.6
18.40Benito GUERRABorja ROZADAMEX/ESPSkoda2:56:40.6+2:20.9+21:22.5
19.71Ken TORNKuldar SIKKEST/ESTFord3:03:07.2+6:26.6+27:49.1
20.62Emil BERGKVISTJoakim SJÖBERGSWE/SWEFord3:03:17.1+9.9+27:59.0
21.63Jean-Baptiste FRANCESCHIRomain COURBONFRA/FRAFord3:04:53.4+1:36.3+29:35.3
22.85Mattias MONELIUS Erik GUSTAFSSONSWE/SWESkoda5:003:05:08.3+14.9+29:50.2
23.37Hiroki ARAIJarmo LEHTINENJPN/FINFord3:06:43.7+1:35.4+31:25.6
24.66Julius TANNERTJürgen HEIGLDEU/AUTFord3:07:15.3+31.6+31:57.2
25.68Callum DEVINEBrian HOYIRL/IRLFord3:09:14.1+1:58.8+33:56.0
26.73Tom WILLIAMSPhil HALLGBR/GBRFord3:13:12.4+3:58.3+37:54.3
27.76Taisko LARIOTatu HÄMÄLÄINENFIN/FINPeugeot3:14:41.0+1:28.6+39:22.9
28.70Bugra BANAZBugrak ERDENERTUR/TURFord3:14:49.9+8.9+39:31.8
29.34Fabio ANDOLFIEmanuele INGLESIITA/ITASkoda3:18:08.6+3:18.7+42:50.5
30.89Gaurav GILLGlenn MACNEALLIND/AUSFord0:103:18:27.7+19.1+43:09.6
31.94Zoltan SZABO Krisztian SZABO HUN/HUNSkoda3:20:17.3+1:49.6+44:59.2
32.67Enrico OLDRATIDanilo FAPPANIITA/ITAFord3:20:35.9+18.6+45:17.8
33.69David HOLDERJason FARMERNZL/NZLFord3:25:24.5+4:48.6+50:06.4
34.74Umberto ACCORNEROMaurizio BARONEITA/ITAFord3:29:50.8+4:26.3+54:32.7
35.81Teemu ASUNMAA Ville MANNISENMÄKIFIN/FINSkoda3:30:22.5+31.7+55:04.4
36.44Simone TEMPESTINISergiu ITUROU/ROUCitroen0:103:31:05.5+43.0+55:47.4
37.12Khalid AL QASSIMIChris PATTERSONARE/IRLCitroen3:41:28.3+10:22.8+1:06:10.2
38.43Murat BOSTANCIOnur VATANSEVERTUR/TURFord3:42:31.8+1:03.5+1:07:13.7
39.65Luca BOTTARELLIManuel FENOLIITA/ITAFord3:43:17.8+46.0+1:07:59.7
40.46Emil LINDHOLMMikael KORHONENFIN/FINSkoda3:45:52.4+2:34.6+1:10:34.3
41.103Kohei IZUNO Takahiro YASUIJPN/JPNToyota3:46:42.4+50.0+1:11:24.3
42.100Alex WATERMAN Harry THOMAS GBR/GBRFord3:47:55.3+1:12.9+1:12:37.2
43.42Lars STUGEMOKalle LEXESWE/SWESkoda3:52:21.1+4:25.8+1:17:03.0
44.36Stéphane LEFEBVREGabin MOREAUFRA/FRACitroen3:52:46.8+25.7+1:17:28.7
45.64Terry FOLBKevin BRONNERFRA/FRAFord3:53:24.6+37.8+1:18:06.5
46.104Shunichi WASHIOIsao KONOJPN/JPNToyota3:54:26.3+1:01.7+1:19:08.2
47.78Sanjay TAKALEDarren GARRODIND/GBRFord0:403:55:20.3+54.0+1:20:02.2
48.47Jarkko NIKARASayaka ADACHIFIN/JPNFord3:55:24.2+3.9+1:20:06.1
49.101Roland POOM Ken JÄRVEOJAEST/ESTFord4:24:55.1+29:30.9+1:49:37.0
50.72Emilio FERNÁNDEZJoaquin RIQUELMECHL/CHLFord4:28:54.6+3:59.5+1:53:36.5
51.48Jouni VIRTANEN Enni MÄLKÖNEN FIN/FINFord4:35:58.2+7:03.6+2:00:40.1

Back to Menu

Print page

Refresh

© Tophill Consulting 2018